Regional Weather Roundup
Issued by NWS

Home | Current Version | Previous Version | Graphics & Text | Print | Product List | Glossary On
Versions: 1 2 3 4 5 6 7 8 9 10 11 12 13 14 15 16 17 18 19 20 21 22 23 24 25 26 27 28 29 30 31 32 33 34 35 36 37 38 39 40 41 42 43 44 45 46 47 48 49 50
842
ASUS43 KLMK 241302
RWRKY
KENTUCKY REGIONAL WEATHER ROUNDUP
NATIONAL WEATHER SERVICE LOUISVILLE KY
800 AM EST TUE JAN 24 2017

NOTE "FAIR" INDICATES FEW OR NO CLOUDS BELOW 12,000 FEET
WITH NO SIGNIFICANT WEATHER AND/OR OBSTRUCTIONS TO VISIBILITY.

KYZ001>023-026-027-061>063-070>075-241400-
WESTERN AND SOUTH CENTRAL KENTUCKY

CITY           SKY/WX    TMP DP  RH WIND       PRES   REMARKS
PADUCAH        CLOUDY    40  32  73 NE5       29.92R
HENDERSON      CLOUDY    41  30  65 NW3       29.93R
OWENSBORO      CLOUDY    40  34  79 N6        29.93R
HOPKINSVILLE   CLOUDY    40  33  78 NW5       29.93R
BOWLING GREEN  CLOUDY    42  34  73 W7        29.93R
GLASGOW        NOT AVBL
$$

KYZ024-025-028>034-038-045-046-053-241400-
NORTH CENTRAL KENTUCKY

CITY           SKY/WX    TMP DP  RH WIND       PRES   REMARKS
LOUISVILLE/SDF CLOUDY    42  34  73 W7        29.89R
LOUISVILLE/LOU CLOUDY    42  34  73 W8        29.89R
FORT KNOX      CLOUDY    39  35  83 W5        29.88R
$$

KYZ035>037-039>044-047>052-055>060-089>105-241400-
NORTHEAST KENTUCKY

CITY           SKY/WX    TMP DP  RH WIND       PRES   REMARKS
LEXINGTON      CLOUDY    40  37  89 W10       29.84R WCI  33
COVINGTON      CLOUDY    41  39  93 W12       29.82R
FRANKFORT      CLOUDY    40  36  86 NW5       29.84R
$$

KYZ054-064>069-076>088-106>120-241400-
SOUTHEAST KENTUCKY

CITY           SKY/WX    TMP DP  RH WIND       PRES   REMARKS
JACKSON        CLOUDY    40  38  93 W6        29.80R
LONDON         CLOUDY    39  38  96 W9        29.85R WCI  33
SOMERSET       NOT AVBL
MIDDLESBORO    CLOUDY    41  37  88 W5        29.85R
MONTICELLO     CLOUDY    39  37  92 W12G18    29.91R WCI  32
$$





USA.gov is the U.S. government's official web portal to all federal, state and local government web resources and services.